User: anonymous   Login
Location: Mascot Post Office (historical)
(40.2645°N, 99.5462°W)
Time: 18:53:41
(UTC+00:00)
Language:

Cosmos 1980 Rocket - Orbit

View from above orbital plane
View from above orbital plane
View from above satellite
View from above satellite

Ground track
Ground track

The orbit data is extracted from the following two-line orbital elements,

1 19650U 88102B   20269.59985540 -.00000246 +00000-0 -10103-3 0  9996
2 19650 071.0026 019.3198 0013665 171.4992 188.6365 14.15794312645058
Epoch (UTC): 25 September 2020 14:23:47
Eccentricity: 0.0013665
inclination: 71.0026°
perigee height: 830 km
apogee height: 849 km
right ascension of ascending node: 19.3198°
argument of perigee: 171.4992°
revolutions per day: 14.15794312
mean anomaly at epoch: 188.6365°
orbit number at epoch: 64505

The dashed part of the orbit path shows where the satellite is in the earth's shadow,  

DLR